Track HINODE (SOLAR B) now! 10-day predictions HINODE (SOLAR B) is classified as:
1 29479U 06041A 25342.60083686 .00001508 00000-0 26923-3 0 9994 2 29479 98.0652 356.5038 0017764 168.6425 191.5185 14.68292983 26909